Probability
0 0 0 0 0 0 0 0 0 0 0 0 0 0 0 0 0 0 0 0 0 0 0 0 0 0 0 0 0 0 0 0 1 2 3 3 1 0 0 0 0 0 0 0
0 0 0 0 0 0 0 0 0 0 0 0 0 0 0 0 0 0 0 0 0 0 0 0 0 0 0 0 0 0 0 0 1 3 3 3 2 1 0 0 0 0 0 0
0 0 0 0 0 0 0 0 0 0 0 0 0 0 0 0 0 0 0 0 0 0 0 0 0 0 0 0 1 1 0 1 2 3 3 3 2 1 0 0 0 0 0 0
0 0 0 0 0 0 0 0 0 0 0 0 0 0 0 0 0 0 0 0 0 0 0 0 0 0 0 1 2 2 1 1 3 3 3 3 1 1 0 0 0 0 0 0
0 0 0 0 0 0 0 0 0 0 0 0 0 0 0 0 0 0 0 0 0 0 0 0 0 0 0 1 2 3 3 3 3 3 3 3 1 0 0 0 0 0 0 0
0 0 0 0 0 0 0 0 0 0 0 0 0 0 0 0 0 0 0 0 0 0 0 0 0 0 0 0 1 3 4 3 3 3 3 3 2 1 0 0 0 0 0 0
0 0 0 0 0 0 0 0 0 0 0 0 0 0 0 0 0 0 0 0 0 0 0 0 0 0 0 0 0 2 3 2 2 2 2 2 2 1 0 0 0 0 0 0
0 0 0 0 0 0 0 0 0 0 0 0 0 0 0 0 0 0 0 0 0 0 0 0 0 0 0 0 1 2 2 1 1 1 1 1 1 0 0 0 0 0 0 0
0 0 0 0 0 0 0 0 0 0 0 0 0 0 0 0 0 0 0 0 0 0 0 0 0 0 0 0 1 2 2 0 0 0 0 0 0 0 0 0 0 0 0 0
0 0 0 0 0 0 0 0 0 0 0 0 0 0 0 0 0 0 0 0 0 0 0 0 0 0 0 0 1 2 2 1 0 0 0 0 0 0 0 0 0 0 0 0
0 0 0 0 0 0 0 0 0 0 0 0 0 0 0 0 0 0 0 0 0 0 0 0 0 0 0 0 1 2 2 2 1 0 0 0 0 0 0 0 0 0 0 0
0 0 0 0 0 0 0 0 0 0 0 0 0 0 0 0 0 0 0 0 0 0 0 0 0 0 0 0 0 1 1 1 1 0 0 0 0 0 1 0 0 0 0 0
0 0 0 0 0 0 0 0 0 0 0 0 0 0 0 0 0 0 0 0 0 0 0 0 0 0 0 0 0 0 0 0 0 0 0 0 0 0 0 0 0 0 0 0
0 0 0 0 0 0 0 0 0 0 0 0 0 0 0 0 0 0 0 0 0 0 0 0 0 0 0 0 0 0 0 0 0 0 0 0 0 0 0 0 0 0 0 0
0 0 0 0 0 0 0 0 0 0 0 0 0 0 0 0 0 0 0 0 0 0 0 0 0 0 0 0 0 0 0 0 0 0 0 0 0 0 0 0 0 0 0 0
0 0 0 0 0 0 0 0 0 0 0 0 0 0 0 0 0 0 0 0 0 0 0 0 0 0 0 0 0 0 0 0 0 0 0 0 0 0 0 0 0 0 0 0
0 0 0 0 0 0 0 0 0 0 0 0 0 0 0 0 0 0 0 0 0 0 0 0 0 0 0 0 0 0 0 0 0 0 0 0 0 0 0 0 0 0 0 0
0 0 0 0 0 0 0 0 0 0 0 0 0 0 0 0 0 0 0 0 0 0 0 0 0 0 0 0 0 0 0 0 0 0 0 0 0 0 0 0 0 0 0 0
0 0 0 0 0 0 0 0 0 0 0 0 0 0 0 0 0 0 0 0 0 0 0 0 0 0 0 0 0 0 0 0 0 0 0 0 0 0 0 0 0 0 0 0
0 0 0 0 0 0 0 0 0 0 0 0 0 0 0 0 0 0 0 0 0 0 0 0 0 0 0 0 0 0 0 0 0 0 0 0 0 0 0 0 0 0 0 0
0 0 0 0 0 0 0 0 0 0 0 0 0 0 0 0 0 0 0 0 0 0 0 0 0 0 0 0 0 0 0 0 0 0 0 0 0 0 0 0 0 0 0 0
0 0 0 0 0 0 0 0 0 0 0 0 0 0 0 0 0 0 0 0 0 0 0 0 0 0 0 0 0 0 0 0 0 0 0 0 0 0 0 0 0 0 0 0
0 0 0 0 0 0 0 0 0 0 0 0 0 0 0 0 0 0 0 0 0 0 0 0 0 0 0 0 0 0 0 0 0 0 0 0 0 0 0 0 0 0 0 0
0 0 0 0 0 0 0 0 0 0 0 0 0 0 0 0 0 0 0 0 0 0 0 0 0 0 0 0 0 0 0 0 0 0 0 0 0 0 0 0 0 0 0 0
0 0 0 0 0 0 0 0 0 0 0 0 0 0 0 0 0 0 0 0 0 0 0 0 0 0 0 0 0 0 0 0 0 0 0 0 0 0 0 0 0 0 0 0
0 0 0 0 0 0 0 0 0 0 0 0 0 0 0 0 0 0 0 0 0 0 0 0 0 0 0 0 0 0 0 0 0 0 0 0 0 0 0 0 0 0 0 0
Wind_Speed
9 10 15 19 20 19 18 18 19 19 15 17 21 22 19 16 15 14 15 15 15 14 13 13 14 14 15 15 17 18 17 16 13 12 11 11 10 8 7 7 9 10 9 9
11 17 21 18 19 21 21 22 21 17 16 15 16 20 17 17 16 14 13 13 14 14 14 14 14 14 15 17 18 19 19 18 16 13 11 9 8 7 7 6 8 10 10 10
18 15 15 18 19 21 22 21 20 17 14 14 13 16 18 15 16 15 15 13 12 14 15 15 15 15 15 16 18 18 20 19 17 14 10 9 7 7 7 9 9 10 10 10
15 17 17 17 18 19 19 18 18 18 15 10 11 10 14 15 16 18 17 15 14 13 13 13 14 15 16 16 17 17 18 19 18 16 15 16 14 12 11 10 8 9 11 11
12 12 15 19 20 18 15 13 16 15 13 12 11 10 9 13 18 19 18 17 16 14 13 13 14 15 16 16 16 16 17 18 18 18 17 17 12 10 8 8 11 11 11 11
17 15 12 14 14 14 12 10 11 10 8 14 16 14 9 11 17 18 19 18 16 15 13 12 12 13 14 15 15 16 17 17 18 19 18 18 16 13 13 12 13 12 9 9
12 14 12 9 9 10 10 7 6 7 9 10 11 13 11 10 13 15 15 17 17 15 14 12 11 12 13 16 16 16 18 17 18 19 19 19 17 16 16 14 14 12 10 9
7 8 7 7 9 8 11 11 8 6 6 6 10 13 10 13 11 9 10 11 12 14 14 14 13 12 13 15 17 18 18 17 18 19 19 18 17 13 11 13 11 13 11 11
6 8 8 8 7 8 7 10 8 6 7 6 6 8 11 10 11 11 10 10 12 13 13 13 12 12 13 14 16 18 19 16 17 18 18 16 17 14 12 12 11 10 9 10
5 9 9 7 5 7 7 5 5 6 6 7 7 10 8 10 12 12 11 10 9 9 10 11 10 11 12 13 13 14 16 16 15 16 16 14 15 15 13 11 12 12 12 11
4 6 8 6 5 5 6 7 6 5 6 5 5 6 6 7 9 10 11 11 9 8 9 9 9 9 10 11 13 13 13 12 13 15 14 13 13 13 12 11 12 12 11 12
3 4 7 9 6 3 3 4 5 5 5 6 5 6 3 3 3 5 7 7 7 8 7 8 8 8 10 11 12 13 13 12 12 13 13 13 12 12 12 11 12 12 12 12
3 3 6 5 1 1 1 3 4 5 5 5 7 8 5 6 5 3 2 3 4 5 6 6 7 7 9 10 11 11 12 12 11 11 12 13 12 13 12 12 11 11 11 11
5 4 5 7 7 6 8 8 7 6 6 7 9 10 9 8 7 5 4 3 1 3 4 5 6 7 7 8 9 10 10 10 10 10 12 13 13 13 12 12 11 11 11 11
3 5 8 12 13 12 12 12 10 11 11 10 11 11 11 8 7 5 4 4 3 1 2 4 6 6 7 7 8 8 9 10 10 10 11 11 11 11 11 11 11 10 10 10
2 4 8 12 12 12 13 12 11 12 12 14 14 13 9 8 7 5 4 4 3 2 1 1 3 6 7 8 8 9 9 9 10 11 10 10 11 11 11 11 11 10 10 10
3 3 4 7 9 10 9 8 9 9 8 9 11 10 10 9 8 6 5 4 3 3 1 1 2 3 6 7 8 9 9 9 10 10 10 11 11 12 11 11 11 11 11 10
7 5 4 6 7 7 5 3 5 7 5 4 7 8 9 10 8 4 6 6 5 4 3 2 1 2 3 5 7 7 9 9 10 10 10 11 11 12 11 12 12 10 10 10
9 7 4 4 6 10 6 4 5 5 2 4 6 8 10 12 7 2 8 8 6 4 4 2 1 1 3 6 7 8 8 9 10 10 11 11 12 13 12 12 11 10 10 9
6 6 5 4 6 6 3 7 8 4 1 5 6 8 9 9 4 5 10 9 7 6 5 3 1 1 3 6 8 9 9 10 10 11 11 11 11 12 13 12 11 9 10 9
3 4 7 7 7 7 4 6 5 1 3 6 6 7 7 5 5 8 9 8 7 6 5 4 1 2 3 6 8 9 9 9 9 9 10 11 11 11 12 11 10 11 10 10
4 4 5 5 7 6 4 3 1 3 4 5 6 6 7 7 8 8 8 7 7 6 5 4 1 1 2 5 7 8 8 8 9 10 11 11 11 11 11 12 11 11 12 12
5 5 3 5 6 5 3 2 2 2 5 6 6 7 8 8 8 9 8 8 6 6 5 4 1 0 2 4 6 8 8 10 11 11 11 12 12 11 11 12 12 11 10 9
5 5 6 6 7 7 7 5 3 4 6 7 7 7 7 8 8 8 8 7 6 5 4 3 1 1 2 3 4 6 9 11 12 12 12 12 12 11 10 8 9 9 9 9
6 5 7 10 10 9 8 6 6 6 7 8 8 8 7 7 8 8 7 7 6 5 4 3 2 2 3 3 4 6 9 12 13 12 12 12 11 12 11 9 6 7 6 9
8 9 9 10 8 8 9 8 7 8 9 9 8 9 7 7 8 8 7 6 5 5 5 3 2 2 3 4 5 7 9 12 14 13 12 10 10 10 11 12 11 14 12 15
Wind_Direction
228 226 226 225 227 240 246 248 248 248 240 235 237 240 236 234 238 233 223 220 217 215 207 198 193 186 178 174 172 173 173 174 170 172 174 174 176 175 173 174 174 174 173 171
242 238 241 241 238 243 247 250 254 260 253 243 245 247 242 234 230 233 233 224 217 212 208 200 192 186 180 177 174 174 176 177 178 179 179 176 169 172 173 173 180 181 178 175
242 246 245 242 238 242 244 246 249 252 257 254 257 254 242 235 233 228 232 232 224 215 208 199 193 189 181 179 177 178 178 179 181 175 168 163 161 165 176 184 187 187 183 180
256 253 251 249 243 237 245 243 250 254 254 249 233 251 235 227 228 225 224 224 224 222 213 201 193 190 185 181 178 178 178 179 180 175 176 175 179 183 187 182 181 182 186 183
258 254 246 248 247 242 247 246 245 248 252 256 239 248 244 219 225 222 218 219 218 217 216 208 196 189 186 180 177 178 177 180 180 180 182 182 185 186 174 172 178 184 189 188
266 266 254 250 248 247 252 254 254 246 242 246 233 232 248 219 223 220 215 214 213 211 214 213 199 186 182 179 176 176 178 181 180 182 184 186 186 182 176 178 183 185 186 188
274 260 243 241 244 237 227 214 216 215 218 235 219 225 239 228 226 223 217 211 209 205 206 210 201 187 182 178 177 177 179 183 183 184 188 190 190 187 185 182 183 182 183 188
282 276 242 229 224 223 219 212 217 218 217 232 215 225 237 230 238 231 223 216 207 203 202 204 200 188 180 178 178 179 182 185 185 186 190 191 190 190 190 185 182 185 188 188
288 282 291 278 249 213 219 220 232 266 282 264 233 234 243 222 228 235 233 222 210 204 200 198 194 185 178 177 179 181 183 186 187 187 188 190 190 190 189 184 181 183 182 180
276 287 293 290 267 220 222 231 210 210 231 239 238 235 234 202 211 220 223 223 214 202 198 194 191 188 181 178 178 178 183 187 185 185 188 190 190 189 186 181 182 180 179 177
289 276 292 288 251 232 217 214 225 221 235 233 241 239 225 215 200 210 218 218 212 206 196 192 190 185 176 170 173 175 181 184 184 185 184 184 186 184 182 182 181 177 176 176
290 280 279 273 263 259 239 226 217 235 245 240 250 264 279 263 217 209 218 215 208 204 193 185 179 176 171 171 174 176 178 182 184 182 179 180 179 178 179 180 178 174 174 175
293 287 300 298 235 38 293 251 237 257 267 249 239 255 323 351 353 346 306 243 206 192 177 169 167 168 170 169 171 173 175 178 178 174 174 175 176 177 179 178 174 173 172 172
303 250 253 276 296 295 286 273 248 236 244 259 251 270 306 330 339 343 340 333 171 161 168 168 166 165 165 163 165 169 171 169 167 166 170 175 178 178 176 173 170 170 169 169
319 273 276 284 288 283 274 269 258 243 241 248 266 274 285 306 320 332 353 8 21 120 162 172 168 163 162 160 160 159 163 163 161 163 168 172 170 168 165 164 164 162 162 163
305 283 293 286 285 287 279 269 259 253 247 252 268 275 292 313 324 343 360 13 17 35 93 155 170 164 164 159 156 155 156 158 158 162 163 160 160 160 159 158 156 154 154 153
244 262 287 283 296 301 272 257 248 243 236 245 257 273 312 320 323 340 359 6 15 3 356 169 166 167 161 156 153 155 155 152 156 157 156 156 155 155 154 152 152 154 155 151
226 239 258 279 292 256 256 326 293 254 236 269 280 299 308 307 301 2 26 5 355 348 338 310 194 170 156 145 142 142 146 150 153 153 154 154 153 152 150 149 152 153 151 151
214 213 235 261 272 275 282 325 320 281 261 337 316 319 325 320 303 349 11 352 341 339 331 300 243 165 154 146 141 140 146 147 150 154 155 155 154 152 151 151 150 145 142 141
200 200 215 248 267 271 331 342 323 291 252 346 333 334 338 340 320 324 342 341 343 346 340 334 31 100 141 147 141 144 151 152 157 157 153 151 151 150 150 148 142 136 136 136
200 213 220 234 253 269 325 338 351 350 297 326 334 337 341 330 301 312 325 331 335 336 332 336 77 146 162 151 146 152 154 161 155 145 141 142 144 143 140 135 134 132 130 128
213 216 223 224 239 256 336 358 16 283 304 320 325 326 322 313 312 317 324 328 334 334 336 336 354 151 157 153 151 152 157 148 139 137 136 137 137 135 133 131 131 132 132 128
222 215 222 224 244 281 288 286 271 284 304 311 314 314 314 313 314 318 321 324 325 327 327 323 314 184 159 157 154 154 152 141 137 133 133 131 129 130 133 135 135 134 133 131
258 250 256 265 266 284 292 290 283 286 292 299 304 302 304 305 305 309 314 316 319 319 314 308 283 192 178 162 152 151 145 140 137 135 133 131 129 127 124 125 131 134 138 136
259 274 270 271 277 284 276 275 284 293 300 302 302 299 298 302 302 299 302 306 307 309 302 297 257 212 181 151 142 141 143 139 136 134 133 129 125 123 115 103 101 119 126 143
243 248 250 258 267 276 285 291 297 298 297 296 294 294 291 292 295 296 295 295 293 293 291 287 266 220 168 148 144 144 145 142 139 137 135 131 128 123 119 111 91 73 94 104